FW4685 Weather Reports


Display with metric or nautical units.
time (UTC)temp
F
wind
direction
speed
MPH
gust
MPH
rain 1hr
in
rain 24hr
in
rain mn
in
humidity
%
barometer
mb
20260509184022 65 94 1.0 5.0 0.00 0.00 0.00 44 1018.0
20260509183034 65 100 1.0 5.0 0.00 0.00 0.00 43 1018.1
20260509182050 65 76 2.0 12.0 0.00 0.00 0.00 42 1018.1
20260509181023 66 88 2.0 7.0 0.00 0.00 0.00 43 1018.0
20260509180023 67 72 2.0 7.0 0.00 0.00 0.00 43 1018.0
20260509175054 68 72 2.0 10.0 0.00 0.00 0.00 42 1017.8
20260509174029 68 51 0.0 5.0 0.00 0.00 0.00 40 1017.7
20260509173022 69 97 2.0 5.0 0.00 0.00 0.00 39 1017.6
20260509172035 69 68 0.0 5.0 0.00 0.00 0.00 40 1017.6
20260509171030 70 61 1.0 15.0 0.00 0.00 0.00 40 1017.7
20260509170022 71 73 2.0 12.0 0.00 0.00 0.00 39 1017.8
20260509165034 71 96 1.0 7.0 0.00 0.00 0.00 38 1017.8
20260509164030 72 105 1.0 7.0 0.00 0.00 0.00 37 1017.8
20260509163022 72 93 2.0 10.0 0.00 0.00 0.00 37 1017.7
20260509162035 73 103 2.0 7.0 0.00 0.00 0.00 35 1017.6
20260509161030 73 74 2.0 12.0 0.00 0.00 0.00 35 1017.9
20260509160022 73 66 2.0 7.0 0.00 0.00 0.00 36 1017.8
20260509155034 73 80 2.0 10.0 0.00 0.00 0.00 35 1017.9
20260509154035 73 93 2.0 7.0 0.00 0.00 0.00 36 1018.0
20260509153030 73 96 1.0 7.0 0.00 0.00 0.00 35 1018.1
20260509152026 73 107 2.0 7.0 0.00 0.00 0.00 36 1018.1
20260509151023 74 45 2.0 7.0 0.00 0.00 0.00 36 1018.1
20260509150035 74 87 1.0 7.0 0.00 0.00 0.00 36 1018.0
20260509145050 74 77 2.0 10.0 0.00 0.00 0.00 36 1018.0
20260509144022 74 106 2.0 10.0 0.00 0.00 0.00 36 1018.0
20260509143034 74 57 2.0 12.0 0.00 0.00 0.00 37 1017.7
20260509142030 74 83 2.0 5.0 0.00 0.00 0.00 36 1017.8
20260509141022 73 100 2.0 7.0 0.00 0.00 0.00 35 1017.8
20260509140054 73 68 1.0 7.0 0.00 0.00 0.00 38 1017.8
20260509135030 73 79 2.0 7.0 0.00 0.00 0.00 37 1018.0
20260509134029 72 80 2.0 12.0 0.00 0.00 0.00 38 1018.0
20260509133023 72 38 2.0 12.0 0.00 0.00 0.00 39 1017.9
20260509132056 72 46 2.0 10.0 0.00 0.00 0.00 40 1018.0
20260509131035 72 41 2.0 10.0 0.00 0.00 0.00 39 1018.2
20260509130030 73 74 1.0 10.0 0.00 0.00 0.00 39 1018.2
20260509125022 72 95 2.0 7.0 0.00 0.00 0.00 41 1018.3
20260509124051 71 79 2.0 10.0 0.00 0.00 0.00 41 1018.4
20260509123029 70 102 1.0 5.0 0.00 0.00 0.00 41 1018.6
20260509122023 70 52 1.0 12.0 0.00 0.00 0.00 46 1018.7
20260509121053 70 27 4.0 12.0 0.00 0.00 0.00 47 1018.7
20260509120051 70 54 1.0 7.0 0.00 0.00 0.00 47 1018.8
20260509115029 69 49 2.0 7.0 0.00 0.00 0.00 47 1018.9
20260509114103 69 35 1.0 7.0 0.00 0.00 0.00 49 1018.9
20260509113034 69 50 2.0 10.0 0.00 0.00 0.00 49 1019.3
20260509112030 68 94 1.0 5.0 0.00 0.00 0.00 50 1019.3
20260509111043 68 61 2.0 10.0 0.00 0.00 0.00 51 1019.3
20260509110035 69 47 2.0 12.0 0.00 0.00 0.00 50 1019.5
20260509105029 69 64 2.0 10.0 0.00 0.00 0.00 52 1019.4
20260509104026 68 81 1.0 5.0 0.00 0.00 0.00 50 1019.5
20260509103022 67 92 1.0 7.0 0.00 0.00 0.00 51 1019.6
20260509102033 66 31 2.0 7.0 0.00 0.00 0.00 55 1019.7
20260509101034 66 22 3.0 10.0 0.00 0.00 0.00 56 1019.8
20260509100029 66 41 2.0 10.0 0.00 0.00 0.00 57 1019.7
20260509095023 65 38 3.0 10.0 0.00 0.00 0.00 58 1019.8
20260509094035 64 18 2.0 7.0 0.00 0.00 0.00 58 1019.9
20260509093050 63 67 1.0 5.0 0.00 0.00 0.00 61 1020.0
20260509092049 62 35 1.0 7.0 0.00 0.00 0.00 64 1020.0
20260509091022 62 29 1.0 10.0 0.00 0.00 0.00 66 1020.2
20260509090033 62 29 3.0 7.0 0.00 0.00 0.00 66 1020.2
20260509085030 61 57 1.0 5.0 0.00 0.00 0.00 67 1020.1
20260509084026 60 95 1.0 5.0 0.00 0.00 0.00 68 1020.2
20260509083043 59 82 1.0 5.0 0.00 0.00 0.00 71 1020.3
20260509082035 58 13 2.0 7.0 0.00 0.00 0.00 73 1020.2
20260509081030 57 32 1.0 12.0 0.00 0.00 0.00 74 1020.3
20260509080042 57 76 1.0 7.0 0.00 0.00 0.00 76 1020.4
20260509075054 56 35 1.0 5.0 0.00 0.00 0.00 78 1020.4
20260509074030 55 84 0.0 5.0 0.00 0.00 0.00 79 1020.4
20260509073021 55 22 1.0 7.0 0.00 0.00 0.00 81 1020.2
20260509072022 54 22 1.0 7.0 0.00 0.00 0.00 82 1020.2
20260509071021 53 21 1.0 7.0 0.00 0.00 0.00 84 1020.2
20260509070055 52 37 0.0 5.0 0.00 0.00 0.00 86 1020.0
20260509065034 51 22 1.0 5.0 0.00 0.00 0.00 87 1020.0
20260509064049 51 34 0.0 5.0 0.00 0.00 0.00 88 1019.9
20260509063022 50 29 0.0 7.0 0.00 0.00 0.00 90 1019.9
20260509062033 49 28 1.0 5.0 0.00 0.00 0.00 93 1020.0
20260509061049 48 20 0.0 0.0 0.00 0.00 0.00 96 1020.1
20260509060029 47 41 0.0 0.0 0.00 0.00 0.00 97 1020.0
20260509055042 46 15 0.0 0.0 0.00 0.00 0.00 97 1019.9
20260509054055 45 22 0.0 0.0 0.00 0.00 0.00 97 1020.0
20260509053029 44 13 0.0 0.0 0.00 0.00 0.00 97 1020.0
20260509052022 44 6 0.0 0.0 0.00 0.00 0.00 97 1020.0
20260509051122 44 14 0.0 0.0 0.00 0.00 0.00 97 1019.8
20260509050033 43 14 0.0 0.0 0.00 0.00 0.00 97 1019.8
20260509045029 43 6 0.0 0.0 0.00 0.00 0.00 97 1019.9
20260509044025 43 13 0.0 0.0 0.00 0.00 0.00 97 1019.9
20260509043021 44 8 0.0 0.0 0.00 0.00 0.00 96 1019.8
20260509042044 44 5 0.0 0.0 0.00 0.00 0.00 96 1019.8
20260509041033 44 12 0.0 0.0 0.00 0.00 0.00 95 1019.9
20260509040028 45 12 0.0 0.0 0.00 0.00 0.00 95 1019.9
20260509035022 45 12 0.0 0.0 0.00 0.00 0.00 95 1019.9
20260509034053 45 11 0.0 0.0 0.00 0.00 0.00 95 1020.0
20260509033029 46 5 0.0 0.0 0.00 0.00 0.00 95 1019.8
20260509032021 46 8 0.0 0.0 0.00 0.00 0.00 94 1019.9
20260509031054 47 11 0.0 0.0 0.00 0.00 0.00 94 1019.8
20260509030029 47 10 0.0 0.0 0.00 0.00 0.00 94 1019.8
20260509025049 47 10 0.0 0.0 0.00 0.00 0.00 94 1020.0
20260509024021 47 14 0.0 0.0 0.00 0.00 0.00 94 1019.9
20260509023033 47 0 0.0 0.0 0.00 0.00 0.00 94 1019.9
20260509022028 46 12 0.0 0.0 0.00 0.00 0.00 94 1019.9
20260509021022 45 32 0.0 0.0 0.00 0.00 0.00 94 1019.9
20260509020033 45 23 0.0 0.0 0.00 0.00 0.00 94 1019.9
20260509015029 45 10 0.0 0.0 0.00 0.00 0.00 93 1020.0
20260509014021 45 5 0.0 0.0 0.00 0.00 0.00 93 1020.0
20260509013032 45 11 0.0 0.0 0.00 0.00 0.00 92 1020.2
20260509012029 45 12 0.0 0.0 0.00 0.00 0.00 92 1020.1
20260509011049 45 5 0.0 0.0 0.00 0.00 0.00 91 1020.1
20260509010021 46 5 0.0 0.0 0.00 0.00 0.00 91 1020.1
20260509005034 46 5 0.0 0.0 0.00 0.00 0.00 90 1020.1
20260509004028 47 5 0.0 0.0 0.00 0.00 0.00 90 1020.2
20260509003025 47 4 0.0 0.0 0.00 0.00 0.00 89 1020.1
20260509002021 47 3 0.0 0.0 0.00 0.00 0.00 90 1020.0
20260509001021 47 2 0.0 0.0 0.00 0.00 0.00 89 1020.1
20260509000035 47 5 0.0 0.0 0.00 0.00 0.00 89 1020.2
20260508235028 47 13 0.0 0.0 0.00 0.00 0.00 88 1020.2
20260508234022 47 13 0.0 0.0 0.00 0.00 0.00 88 1020.2
20260508233053 48 5 0.0 0.0 0.00 0.00 0.00 87 1020.3
20260508232036 48 12 0.0 0.0 0.00 0.00 0.00 87 1020.2
20260508231029 48 12 0.0 0.0 0.00 0.00 0.00 86 1020.2
20260508230029 49 12 0.0 0.0 0.00 0.00 0.00 85 1020.3
20260508225021 49 8 0.0 0.0 0.00 0.00 0.00 85 1020.3
20260508224034 49 6 0.0 0.0 0.00 0.00 0.00 84 1020.2
20260508223029 50 23 0.0 0.0 0.00 0.00 0.00 83 1020.2
20260508222021 50 10 0.0 0.0 0.00 0.00 0.00 82 1020.1
20260508221023 51 13 0.0 0.0 0.00 0.00 0.00 81 1020.0
20260508220033 51 10 0.0 0.0 0.00 0.00 0.00 80 1020.2
20260508215029 52 0 0.0 0.0 0.00 0.00 0.00 78 1020.1
20260508214021 53 13 0.0 0.0 0.00 0.00 0.00 77 1020.1
20260508213034 54 15 0.0 0.0 0.00 0.00 0.00 74 1020.0
20260508212028 55 24 0.0 0.0 0.00 0.00 0.00 72 1019.9
20260508211021 55 24 0.0 0.0 0.00 0.00 0.00 71 1019.9
20260508210021 56 24 0.0 0.0 0.00 0.00 0.00 68 1019.9
20260508205033 57 54 0.0 0.0 0.00 0.00 0.00 67 1019.6
20260508204029 57 59 0.0 0.0 0.00 0.00 0.00 67 1019.7
20260508203042 58 31 0.0 0.0 0.00 0.00 0.00 66 1019.6
20260508202034 58 73 0.0 2.0 0.00 0.00 0.00 65 1019.5
20260508201028 59 81 1.0 5.0 0.00 0.00 0.00 66 1019.3
20260508200022 59 65 0.0 2.0 0.00 0.00 0.00 66 1019.2
20260508195052 60 75 0.0 5.0 0.00 0.00 0.00 65 1019.0
20260508194029 60 85 0.0 0.0 0.00 0.00 0.00 65 1019.0
20260508193021 61 86 1.0 5.0 0.00 0.00 0.00 64 1018.8
20260508192032 62 72 1.0 5.0 0.00 0.00 0.00 64 1018.8
20260508191029 62 77 1.0 5.0 0.00 0.00 0.00 63 1018.7
20260508190021 63 81 1.0 5.0 0.00 0.00 0.00 61 1018.6
20260508185033 63 74 1.0 7.0 0.00 0.00 0.00 61 1018.4